Tracking 18780 objects as of 29-July-2017
HD Live streaming from Space Station
objects crossing your sky now
MAYAK may become the brightest orbital object in the night sky!
Where is MAYAK now?
How to spot MAYAK

NOAA 2 (ITOS-D)

Track NOAA 2 (ITOS-D) now!
10-day predictions
NOAA 2 (ITOS-D) is classified as:


NORAD ID: 6235
Int'l Code: 1972-082A
Perigee: 1,456.0 km
Apogee: 1,461.4 km
Inclination: 101.7 °
Period: 114.9 minutes
Semi major axis: 7829 km
RCS: 2.925 m2 (large)
Launch date: October 15, 1972
Source: United States (US)
Launch site: AIR FORCE WESTERN TEST RANGE (AFWTR)
Your satellite tracking list
Your tracking list is empty





NASA's NSSDC Master Catalog

Two Line Element Set (TLE):
1  6235U 72082A   17209.90746867 -.00000023 +00000-0 +13632-3 0  9995
2  6235 101.6847 174.3359 0003472 269.6200 110.1265 12.53095574048445
Source of the keplerian elements: AFSPC